Location: ????? ???????
(25.7275°N, 32.5929°E)
Time: 10:08:17
(UTC+00:00)

IRS-1C Rocket - Pass Details

Date: 02 March 2021
Orbit: 800 x 806 km, 99.0° (Epoch: 15 April)

Event Time Altitude Azimuth Distance (km) Brightness Sun altitude
Rises 16:43:34 0° 171° (S) 3,296 7.2 -12.4°
Reaches altitude 10° 16:45:53 10° 173° (S) 2,370 6.5 -12.9°
Maximum altitude 16:51:06 72° 257° (WSW) 845 4.4 -14.1°
Drops below altitude 10° 16:56:22 10° 342° (NNW) 2,383 6.8 -15.3°
Sets 16:58:43 0° 345° (NNW) 3,317 7.5 -15.8°
